DW7764 Sant Quirze del Vallas ES current weather conditions

sailwx.info

Wind from 321

Air temperature 8.3° C
Dewpoint 5.6° C

Last reported at 2020-Jan-27 10:01 UTC.
Time now 2020-Jan-27 10:21 UTC

Location: N 41°32' E 002°04'.
View on Google Maps.

See reports from other nearby stations

  
Tides and Currents Weather Stations Pressure Air Temp Water Temp Dewpoint Dewpoint Depression Visibility Wind Speed Wind Dir Waves Ship Positions
date/time (UTC)wind fromknots sea level pressurealtimeterstation pressurevisibilityair tempwater tempwave heightnotes
2020-Jan-27 10:01 321 8.3
2020-Jan-27 09:46 235 8.3
2020-Jan-27 09:31 262 8.3
2020-Jan-27 09:17 201 8.3
2020-Jan-27 09:02 273 7.8
2020-Jan-27 08:46 134 7.2
2020-Jan-27 08:30 276 6.7
2020-Jan-27 08:15 276 6.1
2020-Jan-27 08:00 296 5.6
2020-Jan-27 07:46 284 5.6
2020-Jan-27 07:31 252 5.6
2020-Jan-27 07:16 281 5.0
2020-Jan-27 07:01 292 5.0
2020-Jan-27 06:46 229 5.0
2020-Jan-27 06:31 282 5.0
2020-Jan-27 06:16 261 5.6
2020-Jan-27 06:00 276 5.6
2020-Jan-27 05:45 262 5.6
2020-Jan-27 05:30 288 5.6
2020-Jan-27 05:15 282 5.6
2020-Jan-27 05:00 267 5.6
2020-Jan-27 04:45 244 5.6
2020-Jan-27 04:30 267 5.0
2020-Jan-27 04:16 297 5.0
2020-Jan-27 04:00 304 5.0
2020-Jan-27 03:45 304 5.0
2020-Jan-27 03:30 304 5.0
2020-Jan-27 03:15 304 5.0
2020-Jan-27 03:00 304 5.6
2020-Jan-27 02:45 290 5.6
2020-Jan-27 02:32 278 6.1
2020-Jan-27 02:18 300 6.1
2020-Jan-27 02:02 302 6.1
2020-Jan-27 01:47 302 6.1
2020-Jan-27 01:31 302 6.1
2020-Jan-27 01:17 302 6.7
2020-Jan-27 01:01 302 6.7
2020-Jan-27 00:47 302 6.7
2020-Jan-27 00:32 302 6.7
2020-Jan-27 00:16 302 6.7
2020-Jan-27 00:02 302 7.2
2020-Jan-26 23:46 302 7.2
2020-Jan-26 23:32 302 7.8
2020-Jan-26 23:16 302 7.8
2020-Jan-26 23:02 302 8.3
2020-Jan-26 22:46 302 8.3
2020-Jan-26 22:31 302 8.9
2020-Jan-26 22:16 302 8.9
2020-Jan-26 22:02 302 9.4
2020-Jan-26 21:46 302 9.4
2020-Jan-26 21:30 302 9.4
2020-Jan-26 21:16 278 9.4
2020-Jan-26 21:01 278 9.4
2020-Jan-26 20:46 278 9.4
2020-Jan-26 20:30 278 9.4
2020-Jan-26 20:15 278 9.4
2020-Jan-26 20:01 278 9.4
2020-Jan-26 19:46 278 9.4
2020-Jan-26 19:30 278 9.4
2020-Jan-26 19:16 278 10.0
2020-Jan-26 19:00 278 10.0
2020-Jan-26 18:45 278 10.0
2020-Jan-26 18:30 278 10.0
2020-Jan-26 18:16 278 10.6
2020-Jan-26 18:00 304 10.6
2020-Jan-26 17:46 304 10.6
2020-Jan-26 17:30 011 10.6
2020-Jan-26 17:15 114 11.1
2020-Jan-26 17:00 117 11.1
2020-Jan-26 16:45 360 11.1
2020-Jan-26 16:30 092 11.7
2020-Jan-26 16:15 134 11.7
2020-Jan-26 16:00 020 11.7
2020-Jan-26 15:47 039 12.2
2020-Jan-26 15:31 081 12.8
2020-Jan-26 15:19 135 13.3
2020-Jan-26 15:02 036 13.9
2020-Jan-26 14:31 278 14.4
2020-Jan-26 14:16 283 13.9
2020-Jan-26 14:01 286 13.9
2020-Jan-26 13:46 240 14.4
2020-Jan-26 13:31 284 15.0
2020-Jan-26 13:18 270 14.4
2020-Jan-26 13:01 295 14.4
2020-Jan-26 12:46 280 15.0
2020-Jan-26 12:31 240 15.0
2020-Jan-26 12:17 273 14.4
2020-Jan-26 12:02 252 13.9
2020-Jan-26 11:46 200 13.9
2020-Jan-26 11:31 293 13.9
2020-Jan-26 11:15 282 13.3
2020-Jan-26 11:00 278 13.3
2020-Jan-26 10:46 258 12.8
2020-Jan-26 10:31 239 12.8
2020-Jan-26 10:15 273 12.2
2020-Jan-26 10:01 235 11.7
2020-Jan-26 09:45 135 11.1
2020-Jan-26 09:30 266 10.6
2020-Jan-26 09:15 305 9.4
2020-Jan-26 09:00 304 8.9
2020-Jan-26 08:45 304 7.8
2020-Jan-26 08:30 304 7.2
2020-Jan-26 08:15 304 6.7
2020-Jan-26 08:00 304 6.1
2020-Jan-26 07:45 304 5.6
2020-Jan-26 07:30 304 5.0
2020-Jan-26 07:19 304 5.6
2020-Jan-26 07:01 304 5.0
2020-Jan-26 06:47 304 5.0
2020-Jan-26 06:32 304 5.0
2020-Jan-26 06:18 304 5.0
2020-Jan-26 06:02 304 5.0
2020-Jan-26 05:47 304 5.6
2020-Jan-26 05:31 304 5.6
2020-Jan-26 05:17 304 5.6
2020-Jan-26 05:01 304 6.1
2020-Jan-26 04:48 304 6.1
2020-Jan-26 04:31 295 6.1
2020-Jan-26 04:17 295 6.7
2020-Jan-26 04:02 285 6.1
2020-Jan-26 03:46 285 6.1
2020-Jan-26 03:32 285 6.1
2020-Jan-26 03:17 347 6.1
2020-Jan-26 03:01 347 6.1
2020-Jan-26 02:46 347 6.7
2020-Jan-26 02:31 347 6.7
2020-Jan-26 02:15 347 6.7
2020-Jan-26 02:01 347 6.7
2020-Jan-26 01:46 347 6.7
2020-Jan-26 01:31 347 6.7
2020-Jan-26 01:16 347 6.7
2020-Jan-26 01:00 347 6.7
2020-Jan-26 00:47 347 6.7
2020-Jan-26 00:31 347 6.7
2020-Jan-26 00:15 347 6.7
2020-Jan-26 00:01 347 6.7
2020-Jan-25 23:45 347 7.2
2020-Jan-25 23:30 347 7.2
2020-Jan-25 23:15 347 7.8
2020-Jan-25 23:00 347 7.8
2020-Jan-25 22:45 347 8.3
2020-Jan-25 22:30 347 8.3
2020-Jan-25 22:16 347 8.9
2020-Jan-25 22:00 347 9.4
2020-Jan-25 21:45 347 9.4
2020-Jan-25 21:30 023 9.4
2020-Jan-25 21:15 023 10.0
2020-Jan-25 21:00 023 10.0
2020-Jan-25 20:45 023 10.0
2020-Jan-25 20:30 023 10.0
2020-Jan-25 20:15 053 9.4
2020-Jan-25 20:00 103 10.0
2020-Jan-25 19:45 103 10.0
2020-Jan-25 19:31 103 10.0
2020-Jan-25 19:15 103 10.0
2020-Jan-25 19:00 106 10.0
2020-Jan-25 18:45 106 10.0
2020-Jan-25 18:30 105 10.0
2020-Jan-25 18:15 106 10.0
2020-Jan-25 18:00 105 10.0
2020-Jan-25 17:45 105 10.6
2020-Jan-25 17:30 105 10.6
2020-Jan-25 17:15 105 11.1
2020-Jan-25 17:00 106 11.1
2020-Jan-25 16:45 105 11.7
2020-Jan-25 16:30 106 11.7
2020-Jan-25 16:15 105 11.7
2020-Jan-25 16:00 105 11.7
2020-Jan-25 15:45 134 12.2
2020-Jan-25 15:33 101 12.2
2020-Jan-25 15:17 108 12.2
2020-Jan-25 15:01 108 12.2
2020-Jan-25 14:48 103 12.2
2020-Jan-25 14:31 105 12.2
2020-Jan-25 14:16 108 12.2
2020-Jan-25 14:02 124 12.8
2020-Jan-25 13:48 133 12.8
2020-Jan-25 13:32 153 12.8
2020-Jan-25 13:17 167 13.3
2020-Jan-25 13:01 136 13.3
2020-Jan-25 12:46 029 12.8
2020-Jan-25 12:31 063 12.8
2020-Jan-25 12:17 355 12.2
2020-Jan-25 12:01 139 11.7
2020-Jan-25 11:46 121 11.1
2020-Jan-25 11:30 121 11.1
2020-Jan-25 11:15 359 11.1
2020-Jan-25 11:00 359 10.6
2020-Jan-25 10:46 295 10.0
2020-Jan-25 10:30 340 9.4
2020-Jan-25 10:16 308 8.9
2020-Jan-25 10:00 307 8.3